Location: Five Points
(41.6870°N, 81.1757°W)
Time: 06:40:08
(UTC+00:00)

Daily predictions for brighter satellites

Satellite Brightness Start Highest point End
(mag) Time Altitude Azimuth Time Altitude Azimuth Time Altitude Azimuth
Cosmos 1833 Rocket 2.9 22:21:38 10° NNW 22:27:10 53° ENE 22:32:39 10° SE
Thor Agena Rocket 3.6 22:23:02 10° SSE 22:28:16 72° ENE 22:33:32 10° N
CZ-4C R/B 3.8 22:27:43 10° W 22:31:12 21° NW 22:35:20 10° NNE
SJ-12 4.4 22:28:37 10° SE 22:32:01 32° ENE 22:35:26 10° N
YAOGAN 1 4.3 22:33:25 10° E 22:34:58 12° ENE 22:36:33 10° NE
Cosmos 2221 Rocket 4.3 22:33:11 10° NNW 22:37:37 61° W 22:41:58 10° S
Cosmos 1812 3.8 22:43:17 10° SE 22:44:59 15° E 22:46:33 11° NE
NOSS 3 (A) 4.5 22:43:52 10° S 22:45:25 24° ESE 22:46:18 15° ENE
IRS-P3 4.4 22:40:34 10° SE 22:45:33 43° ENE 22:50:35 10° N
Cosmos 1441 Rocket 3.3 22:42:27 10° NNW 22:45:46 66° W 22:49:05 10° S
SJ 16-02 3.2 22:44:54 10° ESE 22:46:25 12° E 22:47:35 11° ENE
Cosmos 2058 4.3 22:45:31 10° NNE 22:47:56 16° ENE 22:50:21 10° ESE
Cosmos 1484 Rocket 4.5 22:44:58 10° SSW 22:48:10 34° W 22:51:25 10° NNW
OAO 2 Rocket 4.4 22:48:26 10° WSW 22:53:02 36° S 22:57:42 10° ESE
Tiangong 0.9 22:54:19 10° WSW 22:56:03 14° SSW 22:57:47 10° S
Cosmos 1869 3.3 22:52:47 10° SSE 22:56:08 42° E 22:59:28 10° NNE
ARIANE 5 R/B 2.4 22:52:30 10° SSE 22:57:28 78° ENE 23:02:28 10° N
DNEPR-1 R/B 4.0 22:53:02 10° NW 22:57:38 79° WSW 23:03:01 10° SSE
Cosmos 44 Rocket 3.8 22:54:38 10° S 22:59:00 39° ESE 23:03:04 12° NE
SMAP 3.2 22:56:25 10° S 23:01:03 78° WSW 23:05:44 10° NNW
Timation 2 Rocket 4.3 22:54:40 10° S 23:01:23 62° ESE 23:08:08 10° NNE
AQUARIUS 4.0 23:05:56 10° SSE 23:10:20 75° ENE 23:14:45 10° N
Cosmos 2061 Rocket 4.3 23:04:24 10° SSW 23:10:42 72° W 23:16:58 10° N
SL-4 R/B 4.1 23:09:54 10° W 23:12:42 23° SW 23:15:38 10° S
Landsat 7 3.9 23:09:25 10° S 23:14:03 81° WSW 23:18:44 10° NNW
Meteor 2-12 Rocket 4.3 23:12:13 10° N 23:18:20 73° E 23:24:22 10° SSE
SPOT 1/Viking Rocket 3.6 23:18:16 10° SSE 23:23:16 55° ENE 23:28:21 10° N
ATLAS 2AS CENTAUR R/B 4.3 23:21:42 10° NNW 23:25:25 15° NNE 23:27:18 14° NE
Cosmos 407 Rocket 3.5 23:20:39 10° SSW 23:25:51 83° WNW 23:31:01 10° NNE
Geosat FO 3.8 23:23:25 10° SSE 23:26:19 79° ENE 23:29:12 10° NNW
CZ-2D R/B 4.2 23:23:28 10° S 23:26:26 39° W 23:29:27 10° NNW
ISS -3.3 23:23:31 10° WSW 23:26:47 54° NNW 23:28:16 28° NE
SL-12 R/B(2) 4.3 23:20:52 10° SW 23:28:39 85° NW 23:38:11 10° NE
Cosmos 2082 Rocket 2.6 23:24:39 10° N 23:29:51 37° ENE 23:33:07 20° ESE
Cosmos 1943 Rocket 2.1 23:24:44 10° SSW 23:30:22 90° ENE 23:36:00 10° NNE
Cosmos 1464 Rocket 4.1 23:24:18 10° SSE 23:30:24 53° E 23:36:28 10° NNE
Cosmos 371 Rocket 4.1 23:26:35 10° SSE 23:30:39 28° E 23:31:10 28° E
Cosmos 2278 Rocket 2.1 23:25:05 10° SSW 23:30:44 86° ESE 23:36:26 10° NNE
OAO 3 Rocket 4.3 23:26:51 10° SW 23:30:59 32° S 23:33:15 21° SE
Cosmos 2151 Rocket 3.8 23:27:02 10° SSE 23:31:18 46° E 23:35:05 13° NNE
Aureole 3 Rocket 2.0 23:29:06 10° S 23:32:13 89° ESE 23:34:34 16° N
Cosmos 1975 Rocket 3.9 23:28:35 10° NNW 23:32:48 52° W 23:37:02 10° S
ATLAS 5 CENTAUR R/B 2.5 23:31:32 10° NW 23:36:06 60° WSW 23:41:46 10° SSE
Cosmos 304 Rocket 4.3 23:32:31 10° SSE 23:36:45 33° ESE 23:37:16 33° E
CZ-4 R/B 4.2 23:33:26 10° SSE 23:37:24 87° ENE 23:41:24 10° NNW
COSMO-SKYMED 1 2.3 23:36:04 15° NNE 23:39:23 63° E 23:43:27 10° S
Sich 1 Rocket 4.1 23:35:32 10° SSE 23:39:40 37° E 23:40:00 36° E
MOS 1 Rocket 3.3 23:36:01 10° S 23:40:16 72° WSW 23:44:41 10° NNW
USA 215 3.9 23:35:10 10° SSE 23:41:33 57° SW 23:47:59 10° NW
Spot 4 Rocket 3.9 23:37:07 10° SSE 23:42:10 69° ENE 23:47:14 10° N
Cosmos 2034 Rocket 4.2 23:36:40 10° SSE 23:42:25 43° E 23:48:15 10° NNE
SKYMED 2 3.6 23:39:21 10° N 23:43:42 79° WNW 23:48:02 10° SSW
Helios 1A Rocket 2.2 23:43:03 38° NNE 23:44:15 80° ESE 23:47:37 10° S
Timation 1 Rocket 4.2 23:39:00 10° NNW 23:45:00 79° ENE 23:50:57 10° SSE
Okean 1 Rocket 3.4 23:42:37 10° SSE 23:46:31 42° ESE 23:46:31 42° ESE
RESURS DK-1 2.2 23:51:02 10° NNW 23:55:03 83° WSW 23:57:09 27° SSE
